Regional Weather Roundup
Issued by NWS Bismarck, ND

Home | Current Version | Previous Version | Text Only | Print | Product List | Glossary On
Versions: 1 2 3 4 5 6 7 8 9 10 11 12 13 14 15 16 17 18 19 20 21 22 23 24 25 26 27 28 29 30 31 32 33 34 35 36 37 38 39 40 41 42 43 44 45 46 47 48 49 50
000
ASUS43 KBIS 281810
RWRBIS

NWR BROADCAST TEXT
NATIONAL WEATHER SERVICE BISMARCK ND
100 PM CDT SUN AUG 28 2016

NOTE: "FAIR" INDICATES FEW OR NO CLOUDS BELOW 12,000 FEET WITH NO
SIGNIFICANT WEATHER AND/OR OBSTRUCTIONS TO VISIBILITY.


CITY           SKY/WX    TMP DP  RH WIND       PRES   REMARKS
WILLISTON      MOSUNNY   82  53  36 S7        29.88S
MINOT          SUNNY     87  59  38 SE14      29.86F
MINOT AFB      SUNNY     87  60  39 SE17      29.85F
BISMARCK       SUNNY     80  65  59 S7        29.91S
DICKINSON      SUNNY     90  34  13 SW7       29.91R
GARRISON         N/A     83  65  54 SE7       29.89F
HETTINGER ARPT SUNNY     90  49  24 SE3       29.95R
JAMESTOWN      MOSUNNY   80  70  71 S16G24    29.93S
CARRINGTON     FAIR      79  68  69 S15       29.95S
HAZEN          FAIR      82  59  44 SE7       29.91S
LINTON         FAIR      82  72  69 S10G17    29.94S
MANDAN         FAIR      81  61  50 S3        29.92S
OAKES            N/A    N/A N/A N/A MISG        N/A
RUGBY          FAIR      82  66  57 SE13G18   29.91F
STANLEY        FAIR      84  57  39 S10       29.92R
WATFORD CITY   FAIR      86  50  28 SW8       29.89S
$$

CITY           SKY/WX    TMP DP  RH WIND       PRES   REMARKS
GRAND FORKS    PTSUNNY   77  63  61 SE18G25   29.97F
GRAND FORKS AF SUNNY     77  64  65 S20G25    29.98S
DEVILS LAKE    SUNNY     78  67  68 SE17G24   29.94F
FARGO          SUNNY     80  64  58 S18G28    29.98F
CAVALIER       FAIR      77  64  65 S15G23    29.95F
GRAFTON        FAIR      79  66  65 SE17      29.99S
GWINNER        FAIR      82  72  69 SE18      29.96F
LANGDON        FAIR      84  64  51 S21G29    29.96S
ROLLA            N/A     77  64  65 S15G22    29.95F
$$

CITY           SKY/WX    TMP DP  RH WIND       PRES   REMARKS
ABERDEEN       SUNNY     85  69  58 S17G28    29.95F
MOBRIDGE       SUNNY     85  65  51 SE15      29.90S
BUFFALO          N/A     89  45  21 VRB6      29.90S
RAPID CITY     SUNNY     85  49  28 S5        30.00R
GLASGOW        CLOUDY    80  47  31 NW13      29.93R
SIDNEY         CLOUDY    78  58  49 S6        29.89R
WOLF POINT     CLOUDY    82  47  29 S3        29.91R
GLENDIVE       MOSUNNY   84  42  22 NW10      29.93R
MILES CITY     SUNNY     86  45  23 SE8       29.94S
BAKER          SUNNY     87  39  18 W10       29.97R
$$

CITY           SKY/WX    TMP DP  RH WIND       PRES   REMARKS
BILLINGS       PTSUNNY   80  37  21 SW9       30.02S
GREAT FALLS    SUNNY     78  41  26 VRB5      30.03R
REGINA         PTSUNNY   66  55  68 NW13G20   29.91R
ESTEVAN        PTSUNNY   79  54  41 NW8       29.88R
$$





USA.gov is the U.S. government's official web portal to all federal, state and local government web resources and services.